Content
SEND FEEDBACK

Daily
Averages
Monthly
Summary
Philippines

TANQUE, PHILIPPINES


Home > Asia > Philippines
Elevation: 43 feet     Latitude: 14 34N     Longitude: 120 58E

WEATHER
 
SELECT A DAY
Number of Records: 176,357;   Date Range: 7/1/96 - 9/30/14
 
SHARE

PRINT THIS DATA

[ ← Previous Day ]
WEATHER ALMANAC - SEPTEMBER 21, 2013
[ Next Day → ]
[ °C ]   °F
Weather ElementAverageHighLow
Temperature81.2 °F84.2 °F (2:00 pm)77 °F (5:00 pm)
Dewpoint78.3 °F80.6 °F (4:41 pm)77 °F (6:00 am)
Humidity90.8 %100 % (4:41 pm)82 % (2:00 pm)
Barometer29.56 in29.64 in (11:00 pm)29.50 in (3:00 pm)
Wind Speed16.9 mph24.6 mph (8:00 am)
Wind Gust34.5 mph (3:00 pm)
Weather ElementAverage
Visibility5.8 mi
Wind DirectionWSW (253.1 °)

Weather ElementTotal
Precipitation---
Cooling Degree Days15.6 (Base 65)
Growing Degree Days30.6 (Base 50)
Averaged from 32 records on September 21, 2013
WEATHER CONDITIONS BREAKOUT
WIND DIRECTION BREAKOUT
WEATHER BY HOUR - SEPTEMBER 21, 2013
[ °C ]   °F
Local TimeTemperatureDewpointHumidityBarometerVisibilityWind DirectionWind SpeedGust SpeedPrecipitationEventsConditions
1:00 AM80.6 °F78.8 °F94 %29.56 in6.2 miWSW (250°)16.1 mphOvercast
2:00 AM82.0 °F79.0 °F89 %29.56 in6.0 miWest (260°)22.4 mphHaze
2:00 AM80.6 °F78.8 °F94 %29.56 in6.2 miWSW (250°)16.1 mphOvercast
3:00 AM82.4 °F78.8 °F89 %29.53 in6.2 miWest (270°)12.7 mphOvercast
4:00 AM82.4 °F78.8 °F89 %29.53 in6.2 miWSW (250°)18.4 mphOvercast
5:00 AM82.0 °F79.0 °F89 %29.54 in6.0 miWest (260°)20.1 mphHaze
5:00 AM82.4 °F78.8 °F89 %29.53 in6.2 miWest (260°)18.4 mphScattered Clouds
6:00 AM80.6 °F77.0 °F89 %29.53 in5.6 miWest (260°)18.4 mphRainLight Rain
7:00 AM82.4 °F78.8 °F89 %29.53 in6.2 miWSW (250°)18.4 mphMostly Cloudy
8:00 AM83.0 °F80.0 °F88 %29.59 in6.0 miWest (260°)24.6 mphHaze
8:00 AM82.4 °F78.8 °F89 %29.56 in6.2 miWest (260°)19.6 mphScattered Clouds
9:00 AM82.4 °F78.8 °F89 %29.59 in6.2 miWSW (240°)19.6 mphOvercast
10:00 AM80.6 °F78.8 °F94 %29.59 in6.2 miWSW (240°)15.0 mphOvercast
11:00 AM80.6 °F78.8 °F94 %29.59 in6.2 miWSW (250°)16.1 mphMostly Cloudy
12:00 PM82.4 °F78.8 °F89 %29.59 in6.2 miWSW (250°)19.6 mphMostly Cloudy
1:00 PM82.4 °F78.8 °F89 %29.56 in6.2 miWSW (250°)20.7 mphMostly Cloudy
1:30 PM82.4 °F78.8 °F89 %29.53 in6.2 miWest (260°)21.9 mphRain-ThunderstormLight Thunderstorms and Rain
2:00 PM84.0 °F79.0 °F82 %29.55 in6.0 miWSW (250°)22.4 mphHaze
2:00 PM84.2 °F78.8 °F84 %29.53 in6.2 miWSW (250°)23.0 mphMostly Cloudy
3:00 PM82.4 °F78.8 °F89 %29.50 in6.2 miWSW (250°)21.9 mph34.5 mphScattered Clouds
4:00 PM84.2 °F78.8 °F84 %29.53 in6.2 miWSW (250°)19.6 mphMostly Cloudy
4:41 PM80.6 °F80.6 °F100 %29.56 in4.3 miWSW (250°)18.4 mphRainRain
5:00 PM77.0 °F77.0 °F100 %29.56 inWNW (300°)15.7 mphRainHeavy Rain
5:00 PM77.0 °F77.0 °F100 %29.53 in1.2 miWNW (290°)15.0 mphRainHeavy Rain
6:00 PM80.6 °F77.0 °F89 %29.56 in5.0 miWest (270°)16.1 mphRainLight Rain
7:00 PM77.0 °F77.0 °F100 %29.59 in5.0 miWNW (300°)11.5 mphRainLight Rain
8:00 PM80.0 °F78.0 °F91 %29.60 in6.0 miSW (220°)6.7 mphRainLight Rain
8:00 PM78.8 °F77.0 °F94 %29.59 in6.2 miSW (220°)6.9 mphOvercast
9:00 PM78.8 °F77.0 °F94 %29.62 in6.2 miWSW (240°)12.7 mphRainLight Rain
10:00 PM80.6 °F77.0 °F89 %29.62 in6.2 miSW (230°)9.2 mphOvercast
11:00 PM80.0 °F77.0 °F89 %29.64 in6.0 miSW (230°)11.2 mphHaze
11:00 PM80.6 °F77.0 °F89 %29.62 in6.2 miSW (230°)11.5 mphOvercast
Hourly data recorded from RPLL, located miles away from Tanque, Philippines







STORIES FROM OUR PARTNERS